Location: LDNL
(36.4545°S, 141.6685°E)
Time: 04:21:06
(UTC+11:00)

Vanguard 2 - Pass Details

Date: 20 August 2022
Orbit: 552 x 2934 km, 32.9° (Epoch: 06 October)

Event Time Altitude Azimuth Distance (km) Brightness Sun altitude
Rises 19:19:25 0° 262° (W) 6,766 14.0 -15.8°
Reaches altitude 10° 19:24:12 10° 264° (W) 5,636 13.2 -16.8°
Maximum altitude 19:40:21 63° 339° (NNW) 2,394 10.0 -20.0°
Enters shadow 19:48:26 21° 52° (NE) 3,210 10.2 -21.7°
Drops below altitude 10° 19:50:45 10° 57° (ENE) 3,777 - -22.1°
Sets 19:53:19 0° 60° (ENE) 4,487 - -22.6°
